{"data":{"norad_id":52904,"intl_designator":"2022-067B","name":"MEASAT 3D","alt_names":[],"object_type":"PAYLOAD","status":"ACTIVE","operator":null,"country":"MALA","launch_date":"2022-06-22","launch_site_code":"FRGUI","launch_vehicle":null,"mission":null,"orbit_class":"UNKNOWN","rcs_meters":null,"size_class":null,"mass_kg":null,"dimensions":null,"purposes":["comms"],"wikipedia_slug":null,"has_3d_model":false,"image_url":null,"decayed_at":null,"tle_current":{"epoch":"2026-09-19T20:39:23.995296Z","epoch_age_seconds":77263,"freshness":"FRESH","line1":"1 52904U 22067B   26262.86069439 -.00000246  00000+0  00000+0 0  9991","line2":"2 52904   0.0480 327.2710 0001666 266.1852 166.6710  1.00271157 15596","mean_motion":1.00271157,"eccentricity":0.0001666,"inclination_deg":0.048,"raan_deg":327.271,"arg_perigee_deg":266.1852,"mean_anomaly_deg":166.671,"bstar":0,"rev_number":1559,"period_min":1436.1058983293,"perigee_km":35779.746339632,"apogee_km":35793.795686982,"semimajor_km":42164.908013307,"source":"CELESTRAK","updated_at":"2026-09-20T09:00:35.304260Z"}}}